[[{"header":{"parameterUnit":"m.s-1","parameterCategory":1,"la1":30.2991,"la2":30.254,"lo1":-89.0895,"lo2":-89.0444,"dy":0.0017,"dx":0.0017,"nx":28,"ny":28,"refTime":"2024-06-06T09:00:00:Z","depth":0,"parameterNumber":2,"parameterNumberName":"U-component_of_WINDS"},"data":[0,0,0,0,0,0,0,0,0,0,0,0,0,0,0,0,0,0,0,0,0,0,0,0,0,0,0,0,0,0,0,0,0,0,0,0,0,0,0,0,0,0,0,0,0,0,0,0,0,0,0,0,0,0,0,0,0,0,-0.8412,-0.8411,0,-0.8291,-0.8289,-0.8288,-0.822,-0.822,-0.822,-0.8219,-0.809,-0.8087,-0.8083,0,0,0,0,0,0,0,0,0,0,0,0,0,-0.8581,-0.8578,-0.8412,-0.8411,-0.8409,-0.8291,-0.8289,-0.8288,-0.822,-0.822,-0.8219,-0.8219,-0.8091,-0.8087,-0.8083,0,0,0,0,0,0,0,0,0,0,0,0,0,-0.8488,-0.8577,-0.8412,-0.8361,-0.8355,-0.8291,-0.8289,-0.8287,-0.822,-0.822,-0.8219,-0.8219,-0.8092,-0.8087,-0.8082,-0.8058,0,0,-0.8068,-0.8065,0,0,0,0,0,0,0,0,-0.8493,-0.8482,-0.837,-0.8365,-0.8358,-0.827,-0.8301,-0.821,-0.822,-0.8271,-0.8219,-0.8219,-0.815,-0.814,-0.8118,-0.8052,-0.8047,-0.8067,-0.8064,-0.8062,-0.8061,0,0,0,0,0,0,0,-0.85,-0.8487,-0.8364,-0.8369,-0.8361,-0.8343,-0.8329,-0.8284,-0.8213,-0.8267,-0.8262,-0.8248,-0.8146,-0.8123,-0.8114,-0.8045,-0.8067,-0.8063,-0.806,-0.8058,-0.7955,-0.7955,0,0,0,0,0,0,-0.8515,-0.8493,-0.8368,-0.836,-0.8427,-0.834,-0.8325,-0.8299,-0.8214,-0.8201,-0.8249,-0.8246,-0.8131,-0.812,-0.8109,-0.8077,-0.8062,-0.8057,-0.8055,-0.7955,-0.7955,-0.7955,0,0,0,0,0,0,-0.8519,-0.8505,-0.8373,-0.8425,-0.8407,-0.8338,-0.8308,-0.8296,-0.8273,-0.82,-0.8187,-0.8238,-0.8131,-0.8116,-0.8072,-0.8071,-0.8055,-0.8051,-0.7955,-0.7955,-0.7955,-0.8011,0,0,0,0,0,0,-0.8524,-0.8507,-0.8498,-0.8425,-0.8404,-0.8339,-0.8308,-0.8294,-0.8265,-0.826,-0.8187,-0.8174,-0.8129,-0.808,-0.8068,-0.8064,-0.8047,-0.7954,-0.7955,-0.7955,-0.8009,-0.8013,-0.8017,0,0,0,0,0,-0.853,-0.8517,-0.8497,-0.8483,-0.8392,-0.8339,-0.8327,-0.8277,-0.8266,-0.8255,-0.8209,-0.8176,-0.8074,-0.8076,-0.8061,-0.8057,-0.7954,-0.7955,-0.7955,-0.8007,-0.8013,-0.8017,0,0,0,0,0,0,-0.8588,-0.8506,-0.8484,-0.8447,-0.8401,-0.8328,-0.8314,-0.8284,-0.8239,-0.8236,-0.8174,-0.8158,-0.812,-0.8084,-0.8088,-0.803,-0.801,-0.8008,-0.8055,-0.8059,-0.8063,-0.8073,-0.8043,0,0,0,0,0,-0.8597,-0.8562,-0.8492,-0.8466,-0.8444,-0.8383,-0.8358,-0.8324,-0.8273,-0.8253,-0.8203,-0.8154,-0.811,-0.8083,-0.8038,-0.8004,-0.7987,-0.7993,-0.7997,-0.8001,-0.7999,-0.7979,-0.7982,-0.7957,-0.7957,-0.7957,0,0,-0.8614,-0.8565,-0.8546,-0.8476,-0.8436,-0.8401,-0.8367,-0.833,-0.8304,-0.8246,-0.8203,-0.8165,-0.8105,-0.8067,-0.8047,-0.8035,-0.8003,-0.8001,-0.8005,-0.8001,-0.798,-0.7983,-0.7985,-0.7957,-0.7957,-0.7957,0,0,-0.8627,-0.8586,-0.8561,-0.8523,-0.8464,-0.8424,-0.8418,-0.835,-0.8323,-0.8279,-0.8236,-0.8202,-0.8128,-0.8088,-0.8058,-0.8059,-0.8027,-0.8046,-0.8066,-0.8048,-0.805,-0.8051,-0.8052,-0.8053,-0.8045,-0.8045,-0.8045,0,-0.8655,-0.8602,-0.8551,-0.8518,-0.8489,-0.8438,-0.8411,-0.8376,-0.8305,-0.8285,-0.8274,-0.8182,-0.8138,-0.809,-0.809,-0.8067,-0.8058,-0.8054,-0.8054,-0.8055,-0.8055,-0.8056,-0.8056,-0.8047,-0.8047,-0.8047,-0.8047,0,-0.8639,-0.8603,-0.8589,-0.8525,-0.8494,-0.8464,-0.8408,-0.8383,-0.8352,-0.8313,-0.8269,-0.8215,-0.816,-0.8146,-0.8114,-0.8093,-0.8088,-0.8066,-0.8045,-0.8061,-0.8061,-0.806,-0.8051,-0.805,-0.805,-0.8049,0,0,-0.8684,-0.8595,-0.859,-0.8561,-0.8494,-0.8464,-0.8432,-0.8381,-0.836,-0.8313,-0.8285,-0.8225,-0.8205,-0.8171,-0.8134,-0.8118,-0.8123,-0.8097,-0.8095,-0.8105,-0.8098,-0.8116,-0.8117,-0.8102,-0.8102,-0.8101,-0.8103,0,-0.8689,-0.8631,-0.8585,-0.8544,-0.851,-0.8462,-0.8435,-0.839,-0.8353,-0.8318,-0.8275,-0.8235,-0.8211,-0.819,-0.8172,-0.8126,-0.8121,-0.8125,-0.8074,-0.8073,-0.8092,-0.8116,-0.8134,-0.8139,-0.8103,-0.8103,-0.8102,0,-0.8685,-0.8643,-0.86,-0.8538,-0.8521,-0.8498,-0.8448,-0.8415,-0.8363,-0.8337,-0.8301,-0.8263,-0.8227,-0.821,-0.8159,-0.8163,-0.8139,-0.8114,-0.8113,-0.8106,-0.8089,-0.8111,-0.8138,-0.814,-0.8101,-0.8101,-0.8101,0,-0.8724,-0.8656,-0.8622,-0.8598,-0.8524,-0.8509,-0.8477,-0.8425,-0.8397,-0.8353,-0.8335,-0.8286,-0.8259,-0.8222,-0.8172,-0.8164,-0.8127,-0.8105,-0.8104,-0.8105,-0.8098,-0.8099,-0.8123,-0.8082,-0.8082,-0.8082,-0.8082,0,-0.8734,-0.8709,-0.8639,-0.8617,-0.8589,-0.8536,-0.8508,-0.8472,-0.8427,-0.8397,-0.8352,-0.8325,-0.826,-0.8225,-0.8186,-0.815,-0.8138,-0.8116,-0.8106,-0.812,-0.8123,-0.8104,-0.8103,-0.8082,-0.8082,-0.8082,-0.8082,0,-0.8772,-0.8724,-0.8683,-0.8618,-0.8601,-0.8582,-0.8525,-0.8503,-0.8464,-0.8427,-0.8416,-0.8354,-0.8311,-0.8258,-0.8196,-0.817,-0.8138,-0.8123,-0.8157,-0.8151,-0.8153,-0.8154,-0.8166,-0.8165,-0.8125,-0.8125,-0.8125,0,-0.8782,-0.8762,-0.8695,-0.8673,-0.8644,-0.8608,-0.8581,-0.8528,-0.8501,-0.8442,-0.8427,-0.8381,-0.8341,-0.8274,-0.8223,-0.8176,-0.8159,-0.8166,-0.8151,-0.8168,-0.816,-0.8163,-0.8161,-0.817,-0.8171,-0.8172,-0.8172,0,-0.8804,-0.8782,-0.8745,-0.87,-0.867,-0.8631,-0.859,-0.8575,-0.8514,-0.8486,-0.8442,-0.8412,-0.8351,-0.8306,-0.8253,-0.8218,-0.8185,-0.8178,-0.8175,-0.819,-0.8211,-0.8201,-0.8168,-0.8177,-0.8177,-0.8176,-0.8176,-0.8176,-0.8829,-0.881,-0.8761,-0.8721,-0.8686,-0.865,-0.8626,-0.8586,-0.8549,-0.8497,-0.8468,-0.8425,-0.8375,-0.8301,-0.8268,-0.8233,-0.8221,-0.8217,-0.8216,-0.8216,-0.8221,-0.8217,-0.8223,-0.8223,-0.8223,-0.8223,-0.8222,0,-0.885,-0.8817,-0.8781,-0.8728,-0.8697,-0.867,-0.8625,-0.86,-0.8564,-0.8521,-0.8484,-0.8434,-0.8391,-0.8337,-0.829,-0.8273,-0.8256,-0.8262,-0.8263,-0.8256,-0.8234,-0.8242,-0.8276,-0.8276,-0.8276,-0.8276,-0.8276,-0.8276,-0.8858,-0.8825,-0.8797,-0.8746,-0.8712,-0.8672,-0.8649,-0.8615,-0.858,-0.8528,-0.8493,-0.8459,-0.8411,-0.836,-0.8319,-0.8304,-0.8289,-0.83,-0.8281,-0.8262,-0.8257,-0.8253,-0.826,-0.8297,-0.8297,-0.8305,-0.8305,-0.8305]},{"header":{"parameterUnit":"m.s-1","parameterCategory":1,"la1":30.2991,"la2":30.254,"lo1":-89.0895,"lo2":-89.0444,"dy":0.0017,"dx":0.0017,"nx":28,"ny":28,"refTime":"2024-06-06T09:00:00:Z","depth":0,"parameterNumber":3,"parameterNumberName":"V-component_of_WINDS"},"data":[0,0,0,0,0,0,0,0,0,0,0,0,0,0,0,0,0,0,0,0,0,0,0,0,0,0,0,0,0,0,0,0,0,0,0,0,0,0,0,0,0,0,0,0,0,0,0,0,0,0,0,0,0,0,0,0,0,0,2.3977,2.3978,0,2.4064,2.4065,2.4066,2.411,2.411,2.411,2.411,2.4198,2.42,2.4202,0,0,0,0,0,0,0,0,0,0,0,0,0,2.3848,2.3851,2.3977,2.3978,2.3979,2.4063,2.4065,2.4066,2.411,2.411,2.411,2.411,2.4197,2.42,2.4202,0,0,0,0,0,0,0,0,0,0,0,0,0,2.3916,2.3851,2.3977,2.4011,2.4015,2.4063,2.4065,2.4066,2.411,2.411,2.411,2.411,2.4196,2.4199,2.4203,2.4223,0,0,2.4213,2.4215,0,0,0,0,0,0,0,0,2.3913,2.3921,2.4005,2.4009,2.4013,2.4076,2.4052,2.4119,2.411,2.4074,2.411,2.411,2.4157,2.4164,2.418,2.4227,2.4231,2.4213,2.4216,2.4217,2.4218,0,0,0,0,0,0,0,2.3908,2.3918,2.4011,2.4006,2.4011,2.4022,2.4032,2.4064,2.4114,2.4077,2.408,2.409,2.4159,2.4176,2.4182,2.4232,2.4213,2.4216,2.4219,2.422,2.43,2.43,0,0,0,0,0,0,2.3898,2.3913,2.4008,2.4014,2.3962,2.4024,2.4035,2.4056,2.4114,2.4123,2.409,2.4092,2.417,2.4178,2.4185,2.4213,2.4217,2.422,2.4222,2.43,2.43,2.43,0,0,0,0,0,0,2.3895,2.3906,2.4005,2.3965,2.3978,2.4026,2.4049,2.4057,2.4075,2.4124,2.4133,2.4098,2.4171,2.4181,2.4213,2.4217,2.4222,2.4225,2.43,2.43,2.43,2.4268,0,0,0,0,0,0,2.3891,2.3904,2.3913,2.3964,2.398,2.4032,2.4049,2.4059,2.4081,2.4084,2.4134,2.4142,2.4172,2.4208,2.4217,2.4222,2.4228,2.43,2.43,2.43,2.4269,2.4267,2.4266,0,0,0,0,0,2.3886,2.39,2.3913,2.3924,2.3991,2.4032,2.4041,2.4074,2.4081,2.4089,2.4121,2.4141,2.4215,2.4211,2.4221,2.4227,2.43,2.43,2.43,2.427,2.4268,2.4266,0,0,0,0,0,0,2.3846,2.3907,2.3922,2.3953,2.3987,2.4039,2.4051,2.4071,2.4103,2.4105,2.4145,2.4156,2.4185,2.421,2.4204,2.425,2.426,2.4262,2.4233,2.4231,2.4229,2.4223,2.423,0,0,0,0,0,2.3841,2.3869,2.3921,2.3943,2.3959,2.4002,2.4021,2.4044,2.4081,2.4095,2.4129,2.4163,2.4195,2.4214,2.4246,2.4273,2.4285,2.4282,2.428,2.4279,2.428,2.4297,2.4297,2.4301,2.4301,2.4301,0,0,2.3831,2.3868,2.3883,2.3936,2.3965,2.3993,2.4014,2.4042,2.4063,2.4099,2.4133,2.4159,2.42,2.423,2.4245,2.4251,2.4282,2.4279,2.4277,2.428,2.4297,2.4297,2.4296,2.4301,2.4301,2.4301,0,0,2.3827,2.3857,2.3879,2.3908,2.3952,2.398,2.3985,2.4035,2.4054,2.4088,2.4116,2.4141,2.4194,2.4222,2.4243,2.425,2.427,2.4259,2.425,2.4266,2.4265,2.4265,2.4268,2.4269,2.426,2.426,2.426,0,2.3808,2.3851,2.3888,2.3915,2.3938,2.3972,2.3995,2.4021,2.4072,2.4087,2.4093,2.4161,2.4191,2.4229,2.423,2.4246,2.4254,2.4254,2.4263,2.4263,2.4263,2.4266,2.4267,2.4259,2.4259,2.4259,2.4259,0,2.3827,2.3856,2.3869,2.3919,2.3943,2.3967,2.4007,2.4027,2.4049,2.4076,2.4111,2.4148,2.4188,2.4199,2.4219,2.424,2.4242,2.4255,2.4265,2.4261,2.4264,2.4266,2.4257,2.4257,2.4258,2.4258,0,0,2.3799,2.3869,2.3873,2.3897,2.3948,2.3971,2.3997,2.4037,2.4054,2.4088,2.4111,2.4155,2.4168,2.4192,2.4216,2.423,2.4234,2.4241,2.4243,2.4239,2.4259,2.4249,2.425,2.4247,2.4247,2.4247,2.4255,0,2.3802,2.3852,2.3885,2.3922,2.395,2.3983,2.4006,2.404,2.4066,2.4094,2.4123,2.4154,2.4168,2.4183,2.4198,2.423,2.4238,2.423,2.4269,2.427,2.4258,2.4252,2.4241,2.4247,2.4257,2.4257,2.4257,0,2.3812,2.3846,2.3885,2.3934,2.3947,2.3967,2.4006,2.4032,2.4071,2.409,2.4117,2.4142,2.4171,2.4179,2.422,2.4214,2.4232,2.425,2.4251,2.4256,2.4263,2.4257,2.425,2.4251,2.426,2.426,2.426,0,2.3789,2.3844,2.3875,2.3894,2.3951,2.3965,2.3989,2.4028,2.405,2.4084,2.4099,2.4136,2.4156,2.4184,2.4218,2.422,2.4256,2.4266,2.4272,2.4271,2.4278,2.4277,2.4274,2.4289,2.4289,2.4289,2.4289,0,2.3788,2.3811,2.3865,2.3884,2.3911,2.3949,2.3974,2.4002,2.4036,2.4061,2.4092,2.4114,2.4158,2.4186,2.4213,2.4243,2.4252,2.4268,2.4275,2.4265,2.4263,2.4278,2.4278,2.4289,2.4289,2.4289,2.4289,0,2.3767,2.3804,2.384,2.3891,2.3905,2.3922,2.3966,2.3986,2.4015,2.4046,2.4055,2.41,2.4134,2.4171,2.4218,2.4236,2.4265,2.4275,2.4252,2.4256,2.426,2.4259,2.4266,2.4269,2.4281,2.4281,2.4281,0,2.3764,2.3782,2.3836,2.3855,2.3879,2.3909,2.3932,2.3971,2.3993,2.4039,2.4053,2.409,2.4122,2.4175,2.4212,2.4248,2.4259,2.4259,2.4265,2.4255,2.426,2.4258,2.426,2.4257,2.4257,2.4256,2.4256,0,2.3756,2.3773,2.3805,2.3843,2.387,2.3901,2.3934,2.3948,2.3994,2.4017,2.4053,2.4077,2.4126,2.4162,2.4203,2.4228,2.425,2.4254,2.4258,2.4248,2.4234,2.4242,2.4248,2.4254,2.4254,2.4254,2.4254,2.4255,2.3744,2.3762,2.3803,2.3837,2.3866,2.3897,2.3918,2.3949,2.398,2.4023,2.4044,2.408,2.4119,2.4176,2.42,2.4229,2.4236,2.424,2.4242,2.4242,2.424,2.423,2.4237,2.4237,2.4237,2.4237,2.4237,0,2.3737,2.3766,2.3797,2.3842,2.3869,2.3888,2.3926,2.3947,2.3978,2.4013,2.4044,2.4086,2.4121,2.4161,2.4199,2.4214,2.4225,2.4223,2.4222,2.4228,2.4232,2.4225,2.4214,2.4214,2.4214,2.4214,2.4214,2.4214,2.3737,2.3769,2.3791,2.3838,2.3866,2.3902,2.3922,2.395,2.3978,2.4024,2.4054,2.4079,2.4116,2.4158,2.4191,2.4202,2.4215,2.4209,2.4223,2.4226,2.4228,2.4229,2.4224,2.4212,2.4212,2.4217,2.4217,2.4217]}]]